Location: Praha
(50.0830°N, 14.4670°E)
Time: 14:01:01
(UTC+02:00)

ISS - Pass Details

Date: 19 September 2021
Orbit: 419 x 423 km, 51.6° (Epoch: 21 September)

Event Time Altitude Azimuth Distance (km) Brightness Sun altitude
Rises 20:04:21 0° 225° (SW) 2,355 0.5 -10.0°
Reaches altitude 10° 20:06:32 10° 216° (SW) 1,495 -0.7 -10.3°
Maximum altitude 20:09:38 35° 149° (SSE) 700 -3.0 -10.8°
Enters shadow 20:11:44 17° 91° (E) 1,139 -2.2 -11.1°
